Eastover, SC

6:38 PM EDT on April 29, 2017 (GMT -0400)
McEntire Angs

Weather History for KMMT - September, 2013

Change the Weather History Date:

Tuesday, September 24, 2013

  Actual Average Record
Temperature  
Mean Temperature 67 °F -  
Max Temperature 80 °F 79 °F 93 °F (2007)
Min Temperature 55 °F 60 °F 50 °F (1999)
Cooling Degree Days 2    
Growing Degree Days 17 (Base 50)    
Moisture  
Dew Point 57 °F    
Average Humidity 77    
Maximum Humidity 100    
Minimum Humidity 46    
Precipitation  
Precipitation 0.00 in - - ()
Sea Level Pressure  
Sea Level Pressure 30.03 in    
Wind  
Wind Speed 3 mph (ENE)    
Max Wind Speed 8 mph    
Max Gust Speed -    
Visibility 9 miles    
Events Fog    
Averages and records for this station are not official NWS values.
T = Trace of Precipitation, MM = Missing Value Source: NWS Daily Summary

Daily Weather History Graph

Daily Weather History Graph

Search for Another Location

Airport or City:

Trip Planner

Search our weather history database for the weather conditions in past years. The results will help you decide how hot, cold, wet, or windy it might be!

Date:

Astronomy

Sep. 24, 2013 Rise Set
Actual Time 7:12 AM EDT 7:16 PM EDT
Civil Twilight 6:47 AM EDT 7:41 PM EDT
Nautical Twilight 6:18 AM EDT 8:10 PM EDT
Astronomical Twilight 5:49 AM EDT 8:40 PM EDT
Moon 10:47 PM EDT (9/24) 12:12 PM EDT (9/24)
Length of Visible Light 12h 53m
Length of Day
12h 03m
Waning Gibbous, 73% of the Moon is Illuminated
Sep 24
Waning Gibbous
Sep 26
Last Quarter
Oct 4
New
Oct 11
First Quarter
Oct 18
Full

Hourly Weather History & Observations

Time (EDT) Temp. Dew Point Humidity Pressure Visibility Wind Dir Wind Speed Gust Speed Precip Events Conditions
12:58 AM 59.2 °F 57.2 °F 93% 30.07 in 10.0 mi SE 2.3 mph - N/A   Clear
1:58 AM 57.9 °F 55.9 °F 93% 30.07 in 10.0 mi Calm Calm - N/A   Clear
2:58 AM 56.8 °F 56.3 °F 98% 30.06 in 7.0 mi Calm Calm - N/A   Clear
3:18 AM 55.4 °F 55.4 °F 100% 30.05 in 0.8 mi Calm Calm - N/A   Clear
3:28 AM 55.4 °F 55.4 °F 100% 30.05 in 2.0 mi Calm Calm - N/A   Clear
3:38 AM 57.2 °F 57.2 °F 100% 30.05 in 5.0 mi NNE 1.2 mph - N/A   Clear
3:48 AM 55.4 °F 55.4 °F 100% 30.05 in 1.8 mi NE 2.3 mph - N/A   Clear
3:58 AM 56.1 °F 55.9 °F 99% 30.06 in 6.0 mi NNE 2.3 mph - N/A   Clear
4:58 AM 58.1 °F 56.7 °F 95% 30.06 in 10.0 mi ENE 2.3 mph - N/A   Clear
5:58 AM 57.0 °F 55.6 °F 95% 30.07 in 10.0 mi NE 2.3 mph - N/A   Clear
6:58 AM 56.7 °F 55.0 °F 94% 30.08 in 10.0 mi NE 1.2 mph - N/A Fog Patches of Fog
7:58 AM 59.0 °F 54.9 °F 86% 30.08 in 10.0 mi ENE 6.9 mph - N/A Fog Patches of Fog
8:58 AM 64.0 °F 56.7 °F 77% 30.09 in 10.0 mi East 4.6 mph - N/A   Partly Cloudy
9:58 AM 69.6 °F 57.9 °F 66% 30.09 in 10.0 mi East 6.9 mph - N/A   Partly Cloudy
10:58 AM 74.3 °F 57.6 °F 56% 30.09 in 10.0 mi East 8.1 mph - N/A   Mostly Cloudy
11:58 AM 74.7 °F 56.8 °F 54% 30.06 in 10.0 mi ENE 8.1 mph - N/A   Mostly Cloudy
12:58 PM 75.9 °F 56.5 °F 51% 30.05 in 10.0 mi East 6.9 mph - N/A   Mostly Cloudy
1:58 PM 77.4 °F 56.7 °F 49% 30.03 in 10.0 mi East 5.8 mph - N/A   Mostly Cloudy
2:58 PM 77.7 °F 56.8 °F 48% 30.01 in 10.0 mi Variable 5.8 mph - N/A   Mostly Cloudy
3:58 PM 79.2 °F 56.8 °F 46% 29.99 in 10.0 mi Variable 5.8 mph - N/A   Mostly Cloudy
4:58 PM 78.3 °F 57.6 °F 49% 29.96 in 10.0 mi ENE 5.8 mph - N/A   Mostly Cloudy
5:58 PM 76.5 °F 59.0 °F 55% 29.96 in 10.0 mi East 4.6 mph - N/A   Mostly Cloudy
6:58 PM 73.9 °F 61.9 °F 66% 29.96 in 10.0 mi East 1.2 mph - N/A   Mostly Cloudy
7:58 PM 67.5 °F 61.7 °F 82% 29.95 in 10.0 mi ESE 2.3 mph - N/A   Scattered Clouds
8:58 PM 66.4 °F 60.8 °F 82% 29.96 in 10.0 mi ENE 4.6 mph - N/A   Mostly Cloudy
9:58 PM 68.0 °F 60.1 °F 76% 29.96 in 10.0 mi East 4.6 mph - N/A   Overcast
10:58 PM 67.6 °F 59.0 °F 74% 29.96 in 10.0 mi ESE 4.6 mph - N/A   Overcast
11:58 PM 66.4 °F 59.5 °F 79% 29.95 in 10.0 mi ESE 4.6 mph - N/A   Overcast